Weather History for Hanford, CA

Change the Weather History Date:

Monday, May 20, 2013

  Actual Average Record
Temperature  
Mean Temperature 72 °F 70 °F  
Max Temperature 93 °F 85 °F 97 °F (2001)
Min Temperature 51 °F 54 °F 49 °F (2011)
Degree Days  
Heating Degree Days 0    
Month to date heating degree days 2  
Since 1 July heating degree days 2320  
Cooling Degree Days 7    
Month to date cooling degree days 141  
Year to date cooling degree days 205  
Growing Degree Days 23 (Base 50)    
Moisture  
Dew Point 40 °F    
Average Humidity 41    
Maximum Humidity 66    
Minimum Humidity 15    
Precipitation  
Precipitation 0.00 in 0.01 in 0.02 in (2002)
Month to date precipitation 0.18 0.31  
Year to date precipitation 1.60 6.50  
Since 1 July precipitation 3.60 9.84  
Snow  
Snow 0.00 in - - ()
Month to date snowfall 0.0  
Since 1 July snowfall 0.0  
Snow Depth 0.00 in    
Sea Level Pressure  
Sea Level Pressure 29.94 in    
Wind  
Wind Speed 5 mph (WNW)    
Max Wind Speed 12 mph    
Max Gust Speed -    
Visibility 9 miles    
Events      
T = Trace of Precipitation, MM = Missing Value Source: NWS Daily Summary

Daily Weather History Graph

Daily Weather History Graph

Search for Another Location

Airport:

Trip Planner

Search our weather history database for the weather conditions in past years. The results will help you decide how hot, cold, wet, or windy it might be!

Date:

Astronomy

May. 20, 2013 Rise Set
Actual Time 5:48 AM PDT 8:02 PM PDT
Civil Twilight 5:19 AM PDT 8:31 PM PDT
Nautical Twilight 4:43 AM PDT 9:07 PM PDT
Astronomical Twilight 4:04 AM PDT 9:46 PM PDT
Moon 3:22 PM PDT (5/20) 2:37 AM PDT (5/20)
Length of Visible Light 15h 12m
Length of Day
14h 14m
Waxing Gibbous, 76% of the Moon is Illuminated
May 20
Waxing Gibbous
May 24
Full
May 31
Last Quarter
Jun 8
New
Jun 16
First Quarter

Hourly Weather History & Observations

Time (PDT) Temp. Dew Point Humidity Pressure Visibility Wind Dir Wind Speed Gust Speed Precip Events Conditions
1:53 AM 60.1 °F 39.9 °F 47% 29.96 in 10.0 mi NW 4.6 mph - N/A   Clear
2:53 AM 62.1 °F 37.0 °F 39% 29.95 in 10.0 mi NW 5.8 mph - N/A   Clear
5:53 AM 55.0 °F 39.9 °F 57% 29.98 in 10.0 mi Calm Calm - N/A   Clear
7:53 AM - - N/A% 30.00 in - North - - N/A   Unknown
8:53 AM 73.0 °F 34.0 °F 24% 30.01 in 10.0 mi SSW 5.8 mph - N/A   Clear
9:53 AM 75.9 °F 36.0 °F 23% 30.00 in 10.0 mi SSE 4.6 mph - N/A   Clear
10:53 AM 80.1 °F 36.0 °F 20% 29.99 in 10.0 mi Variable 4.6 mph - N/A   Clear
11:53 AM 82.9 °F 36.0 °F 19% 29.99 in 10.0 mi Variable 3.5 mph - N/A   Clear
12:53 PM 87.1 °F 39.0 °F 18% 29.98 in 10.0 mi Variable 4.6 mph - N/A   Clear
1:53 PM 89.1 °F 39.0 °F 17% 29.96 in 10.0 mi Variable 4.6 mph - N/A   Clear
2:53 PM 91.9 °F 37.0 °F 15% 29.94 in 10.0 mi WSW 5.8 mph - N/A   Clear
3:53 PM 91.9 °F 41.0 °F 17% 29.92 in 9.0 mi Variable 4.6 mph - N/A   Clear
4:53 PM 91.9 °F 41.0 °F 17% 29.89 in 10.0 mi Variable 6.9 mph - N/A   Clear
5:53 PM 91.0 °F 42.1 °F 18% 29.88 in 10.0 mi NNW 8.1 mph - N/A   Clear
7:53 PM 84.9 °F 45.0 °F 25% 29.88 in 8.0 mi NW 6.9 mph - N/A   Clear
8:53 PM 78.1 °F 46.0 °F 32% 29.88 in 9.0 mi WNW 3.5 mph - N/A   Clear
9:53 PM 75.9 °F 42.1 °F 30% 29.89 in 8.0 mi NW 5.8 mph - N/A   Clear
10:53 PM 73.9 °F 41.0 °F 30% 29.90 in 7.0 mi NW 5.8 mph - N/A   Clear
11:53 PM 71.1 °F 39.0 °F 31% 29.90 in 8.0 mi NW 5.8 mph - N/A   Clear